Location: Puketoi
(40.5833°S, 176.0167°E)
Time: 15:35:13
(UTC+00:00)

Cosmos 1656 - Pass Details

Date: 08 February 2023
Orbit: 798 x 848 km, 71.1° (Epoch: 22 March)

Event Time Altitude Azimuth Distance (km) Brightness Sun altitude
Exits shadow 14:24:22 67° 69° (ENE) 922 3.8 -28.5°
Maximum altitude 14:24:23 67° 70° (ENE) 922 3.8 -28.5°
Drops below altitude 10° 14:30:05 10° 151° (SSE) 2,501 7.1 -27.9°
Sets 14:32:35 0° 154° (SSE) 3,446 8.1 -27.6°
